Location: Piotrkow Trybunalski
(51.4000°N, 19.6830°E)
Time: 01:03:53
(UTC+01:00)

A-11 Canister half - Pass Details

Date: 16 December 2023
Orbit: 1512 x 1687 km, 47.2° (Epoch: 23 February)

Event Time Altitude Azimuth Distance (km) Brightness Sun altitude
Exits shadow 05:09:29 13° 231° (SW) 3,655 10.6 -22.1°
Drops below altitude 10° 05:12:55 10° 211° (SSW) 3,922 10.9 -21.6°
Sets 05:18:29 0° 187° (S) 4,923 11.7 -20.8°
